User: anonymous   Login
Location: Unspecified
(0.0000°N, 0.0000°E)
Time: 19:10:35
(UTC+00:00)
Language:

CZ-2C R/B - Orbit

View from above orbital plane
View from above orbital plane
View from above satellite
View from above satellite

Ground track
Ground track

The orbit data is extracted from the following two-line orbital elements,

1 39203U 13035B   24062.57408988  .00000516  00000-0  12714-3 0  9992
2 39203  98.4205 274.9090 0050187 198.7892 161.1454 14.55690277564523
Epoch (UTC): 02 March 2024 13:46:41
Eccentricity: 0.0050187
inclination: 98.4205°
perigee height: 671 km
apogee height: 742 km
right ascension of ascending node: 274.9090°
argument of perigee: 198.7892°
revolutions per day: 14.55690277
mean anomaly at epoch: 161.1454°
orbit number at epoch: 56452

The dashed part of the orbit path shows where the satellite is in the earth's shadow,  

DLR